TimePDT,TemperatureF,Dew PointF,Humidity,Sea Level PressureIn,VisibilityMPH,Wind Direction,Wind SpeedMPH,Gust SpeedMPH,PrecipitationIn,Events,Conditions,WindDirDegrees,DateUTC
12:56 AM,30.0,24.1,79,30.43,10.0,ENE,6.9,-,N/A,,Clear,60,2012-10-26 07:56:00
1:56 AM,30.0,23.0,75,30.42,10.0,NE,9.2,-,N/A,,Clear,50,2012-10-26 08:56:00
2:56 AM,28.9,21.9,75,30.42,10.0,NE,10.4,-,N/A,,Clear,50,2012-10-26 09:56:00
3:56 AM,23.0,19.0,85,30.43,10.0,East,5.8,-,N/A,,Clear,100,2012-10-26 10:56:00
4:56 AM,28.0,21.0,75,30.42,10.0,ENE,6.9,-,N/A,,Clear,70,2012-10-26 11:56:00
5:56 AM,23.0,19.0,85,30.45,10.0,ESE,5.8,-,N/A,,Clear,110,2012-10-26 12:56:00
6:56 AM,21.0,18.0,88,30.47,10.0,ESE,4.6,-,N/A,,Clear,120,2012-10-26 13:56:00
7:56 AM,21.9,18.0,85,30.48,10.0,SE,4.6,-,N/A,,Clear,140,2012-10-26 14:56:00
8:56 AM,30.9,21.9,69,30.47,10.0,East,4.6,-,N/A,,Clear,100,2012-10-26 15:56:00
9:56 AM,35.1,24.1,64,30.42,10.0,SE,10.4,-,N/A,,Clear,130,2012-10-26 16:56:00
10:56 AM,43.0,24.1,47,30.40,10.0,South,9.2,-,N/A,,Clear,190,2012-10-26 17:56:00
11:56 AM,45.0,24.1,44,30.37,10.0,SW,5.8,-,N/A,,Partly Cloudy,220,2012-10-26 18:56:00
12:56 PM,48.0,25.0,41,30.31,10.0,Variable,6.9,-,N/A,,Clear,0,2012-10-26 19:56:00
1:56 PM,50.0,23.0,35,30.26,10.0,SSE,12.7,16.1,N/A,,Partly Cloudy,160,2012-10-26 20:56:00
2:56 PM,51.1,24.1,35,30.23,10.0,SSE,11.5,-,N/A,,Clear,160,2012-10-26 21:56:00
3:56 PM,53.1,24.1,32,30.22,10.0,South,11.5,-,N/A,,Clear,170,2012-10-26 22:56:00
4:56 PM,52.0,25.0,35,30.20,10.0,SSE,9.2,-,N/A,,Clear,160,2012-10-26 23:56:00
5:56 PM,50.0,24.1,36,30.22,10.0,Calm,Calm,-,N/A,,Clear,0,2012-10-27 00:56:00
6:56 PM,46.0,25.0,44,30.24,10.0,SSE,10.4,-,N/A,,Clear,150,2012-10-27 01:56:00
7:56 PM,43.0,26.1,51,30.25,10.0,South,10.4,-,N/A,,Clear,180,2012-10-27 02:56:00
8:56 PM,39.9,25.0,55,30.23,10.0,South,9.2,-,N/A,,Clear,180,2012-10-27 03:56:00
9:56 PM,43.0,23.0,45,30.21,10.0,South,13.8,-,N/A,,Clear,180,2012-10-27 04:56:00
10:56 PM,41.0,24.1,51,30.20,10.0,SSE,6.9,-,N/A,,Clear,160,2012-10-27 05:56:00
11:56 PM,34.0,25.0,70,30.21,10.0,Calm,Calm,-,N/A,,Clear,0,2012-10-27 06:56:00